Radioactive Concentration measured by Seawater Radiation Monitor near Fukushima Daiichi Nuclear Power Station
Date,Time,Cs137(Bq/L),Cs134(Bq/L),Total β(Bq/L)
2020/04/19,00:00,0.44,ND,37
2020/04/19,00:10,0.46,ND,39
2020/04/19,00:20,0.45,ND,37
2020/04/19,00:30,0.46,ND,37
2020/04/19,00:40,0.42,ND,39
2020/04/19,00:50,0.46,ND,41
2020/04/19,01:00,0.47,ND,39
2020/04/19,01:10,0.47,ND,40
2020/04/19,01:20,0.49,ND,40
2020/04/19,01:30,0.50,ND,44
2020/04/19,01:40,0.51,ND,42
2020/04/19,01:50,0.51,ND,40
2020/04/19,02:00,0.52,ND,39
2020/04/19,02:10,0.51,ND,38
2020/04/19,02:20,0.50,ND,40
2020/04/19,02:30,0.47,ND,38
2020/04/19,02:40,0.53,ND,39
2020/04/19,02:50,0.53,ND,41
2020/04/19,03:00,0.54,ND,41
2020/04/19,03:10,0.55,ND,42
2020/04/19,03:20,0.56,ND,41
2020/04/19,03:30,0.55,ND,38
2020/04/19,03:40,0.56,ND,39
2020/04/19,03:50,0.57,ND,36
2020/04/19,04:00,0.57,ND,39
2020/04/19,04:10,0.56,ND,38
2020/04/19,04:20,0.55,ND,39
2020/04/19,04:30,0.56,ND,42
2020/04/19,04:40,0.55,ND,41
2020/04/19,04:50,0.55,ND,42
2020/04/19,05:00,0.55,ND,38
2020/04/19,05:10,0.57,ND,37
2020/04/19,05:20,0.57,ND,38
2020/04/19,05:30,0.55,ND,37
2020/04/19,05:40,0.53,ND,38
2020/04/19,05:50,0.52,ND,38
2020/04/19,06:00,0.49,ND,40
2020/04/19,06:10,0.48,ND,40
2020/04/19,06:20,0.47,ND,39
2020/04/19,06:30,0.46,ND,40
2020/04/19,06:40,0.43,ND,38
2020/04/19,06:50,0.43,ND,39
2020/04/19,07:00,0.45,ND,40
2020/04/19,07:10,0.43,ND,37
2020/04/19,07:20,0.42,ND,40
2020/04/19,07:30,0.42,ND,38
2020/04/19,07:40,0.43,ND,37
2020/04/19,07:50,0.44,ND,38
2020/04/19,08:00,0.45,ND,37
2020/04/19,08:10,0.44,ND,40
2020/04/19,08:20,0.46,ND,36
2020/04/19,08:30,0.45,ND,37
2020/04/19,08:40,0.46,ND,38
2020/04/19,08:50,0.46,ND,36
2020/04/19,09:00,0.45,ND,36
2020/04/19,09:10,0.45,ND,36
2020/04/19,09:20,0.46,ND,38
2020/04/19,09:30,0.48,ND,38
2020/04/19,09:40,0.48,ND,39
2020/04/19,09:50,0.46,ND,40
2020/04/19,10:00,0.47,ND,37
2020/04/19,10:10,0.48,ND,36
2020/04/19,10:20,0.48,ND,37
2020/04/19,10:30,0.44,ND,37
2020/04/19,10:40,0.44,ND,40
2020/04/19,10:50,0.45,ND,39
2020/04/19,11:00,0.45,ND,42
2020/04/19,11:10,0.43,ND,44
2020/04/19,11:20,0.43,ND,44
2020/04/19,11:30,0.45,ND,44
2020/04/19,11:40,0.44,ND,41
2020/04/19,11:50,0.44,ND,42
2020/04/19,12:00,0.42,ND,41
2020/04/19,12:10,0.41,ND,40
2020/04/19,12:20,0.41,ND,38
2020/04/19,12:30,0.40,ND,36
2020/04/19,12:40,0.42,ND,40
2020/04/19,12:50,0.42,ND,40
2020/04/19,13:00,0.45,ND,40
2020/04/19,13:10,0.46,ND,39
2020/04/19,13:20,0.46,ND,38
2020/04/19,13:30,0.47,ND,39
2020/04/19,13:40,0.46,ND,36
2020/04/19,13:50,0.45,ND,36
2020/04/19,14:00,0.44,ND,34
2020/04/19,14:10,0.43,ND,34
2020/04/19,14:20,0.43,ND,33
2020/04/19,14:30,0.41,ND,33
2020/04/19,14:40,0.41,ND,31
2020/04/19,14:50,0.40,ND,30
2020/04/19,15:00,0.42,ND,31
2020/04/19,15:10,0.45,ND,33
2020/04/19,15:20,0.44,ND,32
2020/04/19,15:30,0.47,ND,31
2020/04/19,15:40,0.47,ND,33
2020/04/19,15:50,0.48,ND,33
2020/04/19,16:00,0.45,ND,33
2020/04/19,16:10,0.43,ND,33
2020/04/19,16:20,0.44,ND,36
2020/04/19,16:30,0.41,ND,37
2020/04/19,16:40,0.43,ND,39
2020/04/19,16:50,0.44,ND,40
2020/04/19,17:00,0.47,ND,39
2020/04/19,17:10,0.46,ND,38
2020/04/19,17:20,0.47,ND,36
2020/04/19,17:30,0.48,ND,35
2020/04/19,17:40,0.47,ND,32
2020/04/19,17:50,0.46,ND,33
2020/04/19,18:00,0.45,ND,37
2020/04/19,18:10,0.45,ND,36
2020/04/19,18:20,0.46,ND,40
2020/04/19,18:30,0.46,ND,41
2020/04/19,18:40,0.47,ND,43
2020/04/19,18:50,0.48,ND,42
2020/04/19,19:00,0.50,ND,40
2020/04/19,19:10,0.52,ND,39
2020/04/19,19:20,0.49,ND,37
2020/04/19,19:30,0.52,ND,36
2020/04/19,19:40,0.51,ND,32
2020/04/19,19:50,0.51,ND,34
2020/04/19,20:00,0.50,ND,35
2020/04/19,20:10,0.50,ND,36
2020/04/19,20:20,0.51,ND,36
2020/04/19,20:30,0.49,ND,35
2020/04/19,20:40,0.49,ND,41
2020/04/19,20:50,0.48,ND,38
2020/04/19,21:00,0.48,ND,35
2020/04/19,21:10,0.49,ND,34
2020/04/19,21:20,0.51,ND,33
2020/04/19,21:30,0.51,ND,37
2020/04/19,21:40,0.51,ND,33
2020/04/19,21:50,0.54,ND,31
2020/04/19,22:00,0.55,ND,36
2020/04/19,22:10,0.55,ND,35
2020/04/19,22:20,0.52,ND,38
2020/04/19,22:30,0.52,ND,37
2020/04/19,22:40,0.52,ND,39
2020/04/19,22:50,0.48,ND,42
2020/04/19,23:00,0.47,ND,42
2020/04/19,23:10,0.46,ND,42
2020/04/19,23:20,0.46,ND,41
2020/04/19,23:30,0.46,ND,37
2020/04/19,23:40,0.45,ND,39
2020/04/19,23:50,0.46,ND,38
